| time (UTC) | temp F | wind direction | speed MPH | gust MPH | rain 1hr in | rain 24hr in | rain mn in | humidity % | barometer mb |
| 20260504081510 | 52 | 346 | 0.0 | 2.0 | 0.00 | 0.02 | 0.00 | 90 | 1016.8 |
| 20260504050008 | 52 | 346 | 0.0 | 2.0 | 0.00 | 0.02 | 0.00 | 89 | 1018.4 |
| 20260504044511 | 52 | 346 | 0.0 | 0.0 | 0.00 | 0.02 | 0.02 | 90 | 1018.4 |
| 20260504043011 | 52 | 346 | 0.0 | 2.0 | 0.00 | 0.02 | 0.02 | 89 | 1018.6 |
| 20260504041504 | 52 | 346 | 0.0 | 0.0 | 0.00 | 0.02 | 0.02 | 89 | 1018.7 |
| 20260504040010 | 53 | 346 | 0.0 | 0.0 | 0.00 | 0.02 | 0.02 | 89 | 1018.7 |
| 20260504034521 | 53 | 346 | 0.0 | 0.0 | 0.00 | 0.02 | 0.02 | 88 | 1018.7 |
| 20260504033015 | 53 | 346 | 0.0 | 0.0 | 0.00 | 0.02 | 0.02 | 87 | 1018.8 |
| 20260504031504 | 54 | 346 | 0.0 | 0.0 | 0.00 | 0.02 | 0.02 | 86 | 1019.0 |
| 20260504030006 | 55 | 346 | 0.0 | 0.0 | 0.00 | 0.02 | 0.02 | 86 | 1018.7 |
| 20260504024510 | 55 | 346 | 0.0 | 0.0 | 0.00 | 0.02 | 0.02 | 84 | 1018.7 |
| 20260504023015 | 56 | 346 | 0.0 | 0.0 | 0.00 | 0.02 | 0.02 | 83 | 1018.5 |
| 20260504021512 | 57 | 346 | 0.0 | 0.0 | 0.00 | 0.02 | 0.02 | 80 | 1018.3 |
| 20260504020005 | 57 | 346 | 0.0 | 0.0 | 0.00 | 0.02 | 0.02 | 79 | 1018.2 |
| 20260504014516 | 58 | 346 | 0.0 | 0.0 | 0.00 | 0.02 | 0.02 | 75 | 1018.0 |
| 20260504013017 | 59 | 346 | 0.0 | 0.0 | 0.00 | 0.02 | 0.02 | 76 | 1017.9 |
| 20260504011515 | 60 | 346 | 0.0 | 0.0 | 0.00 | 0.02 | 0.02 | 73 | 1017.8 |
| 20260504010021 | 61 | 346 | 0.0 | 0.0 | 0.00 | 0.02 | 0.02 | 72 | 1017.7 |
| 20260504004506 | 63 | 346 | 0.0 | 0.0 | 0.00 | 0.03 | 0.02 | 70 | 1017.7 |
| 20260504003011 | 64 | 346 | 0.0 | 0.0 | 0.00 | 0.03 | 0.02 | 69 | 1017.6 |
| 20260504001519 | 65 | 346 | 0.0 | 0.0 | 0.00 | 0.03 | 0.02 | 67 | 1017.6 |
| 20260504000018 | 67 | 346 | 0.0 | 0.0 | 0.00 | 0.03 | 0.02 | 61 | 1017.5 |
| 20260503234523 | 69 | 346 | 0.0 | 0.0 | 0.00 | 0.03 | 0.02 | 52 | 1017.6 |
| 20260503233012 | 70 | 346 | 0.0 | 2.0 | 0.00 | 0.03 | 0.02 | 44 | 1017.7 |
| 20260503231520 | 70 | 346 | 0.0 | 2.0 | 0.00 | 0.03 | 0.02 | 43 | 1017.9 |
| 20260503230022 | 71 | 346 | 0.0 | 0.0 | 0.00 | 0.03 | 0.02 | 45 | 1017.9 |
| 20260503224521 | 71 | 341 | 0.0 | 2.0 | 0.00 | 0.03 | 0.02 | 46 | 1018.0 |
| 20260503223020 | 71 | 38 | 0.0 | 2.0 | 0.00 | 0.03 | 0.02 | 43 | 1018.1 |
| 20260503221514 | 71 | 318 | 0.0 | 2.0 | 0.01 | 0.03 | 0.02 | 42 | 1018.1 |
| 20260503220021 | 71 | 327 | 0.0 | 2.0 | 0.01 | 0.03 | 0.02 | 43 | 1018.0 |
| 20260503214520 | 71 | 5 | 0.0 | 2.0 | 0.01 | 0.03 | 0.02 | 46 | 1018.3 |
| 20260503213029 | 70 | 325 | 1.0 | 2.0 | 0.01 | 0.03 | 0.02 | 42 | 1018.5 |
| 20260503211518 | 71 | 339 | 0.0 | 2.0 | 0.00 | 0.02 | 0.01 | 41 | 1018.7 |
| 20260503210018 | 70 | 291 | 0.0 | 2.0 | 0.00 | 0.02 | 0.01 | 45 | 1019.0 |
| 20260503204531 | 70 | 205 | 0.0 | 2.0 | 0.00 | 0.02 | 0.01 | 43 | 1019.4 |
| 20260503203024 | 71 | 319 | 1.0 | 2.0 | 0.00 | 0.02 | 0.01 | 43 | 1019.5 |
| 20260503201526 | 70 | 351 | 0.0 | 4.0 | 0.00 | 0.02 | 0.01 | 45 | 1019.9 |
| 20260503200014 | 70 | 286 | 0.0 | 2.0 | 0.00 | 0.02 | 0.01 | 44 | 1020.3 |
| 20260503194523 | 70 | 105 | 0.0 | 3.0 | 0.00 | 0.02 | 0.01 | 44 | 1020.6 |
| 20260503193025 | 69 | 281 | 0.0 | 3.0 | 0.00 | 0.02 | 0.01 | 43 | 1020.9 |
| 20260503191520 | 69 | 276 | 0.0 | 3.0 | 0.00 | 0.02 | 0.01 | 42 | 1021.0 |
| 20260503190014 | 69 | 289 | 0.0 | 2.0 | 0.00 | 0.02 | 0.01 | 45 | 1021.5 |
| 20260503184522 | 69 | 190 | 1.0 | 3.0 | 0.00 | 0.02 | 0.01 | 44 | 1021.6 |
| 20260503183026 | 68 | 234 | 0.0 | 2.0 | 0.00 | 0.02 | 0.01 | 45 | 1021.8 |
| 20260503181507 | 68 | 240 | 0.0 | 2.0 | 0.00 | 0.02 | 0.01 | 44 | 1022.2 |
| 20260503180024 | 68 | 236 | 0.0 | 3.0 | 0.00 | 0.02 | 0.01 | 46 | 1022.2 |
| 20260503174521 | 68 | 183 | 0.0 | 3.0 | 0.00 | 0.02 | 0.01 | 42 | 1022.3 |
| 20260503173024 | 67 | 285 | 0.0 | 2.0 | 0.00 | 0.02 | 0.01 | 42 | 1022.8 |
| 20260503171530 | 67 | 293 | 0.0 | 2.0 | 0.00 | 0.02 | 0.01 | 43 | 1023.0 |